EW5236 Weather Reports


Display with metric or nautical units.
time (UTC)temp
F
wind
direction
speed
MPH
gust
MPH
rain 1hr
in
rain 24hr
in
rain mn
in
humidity
%
barometer
mb
20260506133114 54 80 4.0 14.0 0.00 0.00 0.00 61 1010.1
20260506131553 53 93 3.0 12.0 0.00 0.00 0.00 62 1010.1
20260506130110 53 77 6.0 15.0 0.00 0.00 0.00 63 1010.1
20260506124552 53 96 3.0 9.0 0.00 0.00 0.00 65 1010.1
20260506123051 53 215 1.0 8.0 0.00 0.00 0.00 64 1010.0
20260506121550 53 107 2.0 10.0 0.00 0.00 0.00 64 1009.9
20260506120049 53 101 3.0 8.0 0.00 0.00 0.00 67 1009.8
20260506114550 53 92 3.0 13.0 0.00 0.00 0.00 67 1009.8
20260506113048 53 90 4.0 11.0 0.00 0.00 0.00 63 1009.8
20260506111547 53 96 4.0 11.0 0.00 0.00 0.00 61 1009.7
20260506110047 53 98 3.0 12.0 0.00 0.00 0.00 64 1009.7
20260506104607 53 66 2.0 8.0 0.00 0.00 0.00 68 1009.5
20260506103042 52 86 2.0 15.0 0.00 0.00 0.00 65 1009.6
20260506101541 52 71 4.0 18.0 0.00 0.00 0.00 62 1009.6
20260506100043 52 88 6.0 19.0 0.00 0.00 0.00 57 1009.5
20260506094538 52 94 4.0 13.0 0.00 0.00 0.00 59 1009.4
20260506093035 52 67 5.0 18.0 0.00 0.00 0.00 61 1009.3
20260506091534 52 39 2.0 8.0 0.00 0.00 0.00 65 1009.3
20260506090040 52 123 1.0 8.0 0.00 0.00 0.00 68 1009.2
20260506084528 52 111 4.0 12.0 0.00 0.00 0.00 70 1009.1
20260506083035 51 59 3.0 11.0 0.00 0.00 0.00 73 1009.1
20260506081520 51 54 3.0 10.0 0.00 0.00 0.00 74 1009.0
20260506073015 50 113 0.0 6.0 0.00 0.00 0.00 78 1008.8
20260506071513 50 58 2.0 5.0 0.00 0.00 0.00 78 1008.8
20260506061504 49 46 2.0 6.0 0.00 0.00 0.00 80 1008.5
20260506044608 48 83 0.0 4.0 0.00 0.00 0.00 84 1008.2
20260506043056 48 327 1.0 3.0 0.00 0.00 0.00 84 1008.2
20260506041553 48 331 0.0 4.0 0.00 0.00 0.00 84 1008.3
20260506040051 48 5 0.0 5.0 0.00 0.00 0.00 84 1008.3
20260506034549 48 360 1.0 4.0 0.00 0.00 0.00 84 1008.4
20260506033046 49 326 1.0 5.0 0.00 0.00 0.00 84 1008.4
20260506031547 49 201 0.0 3.0 0.00 0.00 0.00 84 1008.5
20260506030041 49 296 0.0 4.0 0.00 0.00 0.00 84 1008.7
20260506024545 49 346 0.0 3.0 0.00 0.00 0.00 83 1008.8
20260506023040 49 355 1.0 4.0 0.00 0.00 0.00 83 1008.9
20260506021552 49 23 1.0 3.0 0.00 0.00 0.00 82 1008.9
20260506020037 49 75 0.0 5.0 0.00 0.00 0.00 82 1009.0
20260506014536 49 29 0.0 4.0 0.00 0.00 0.00 82 1009.2
20260506013034 49 327 0.0 3.0 0.00 0.00 0.00 81 1009.2
20260506011534 49 328 0.0 4.0 0.00 0.00 0.00 81 1009.2
20260506010044 49 329 1.0 8.0 0.00 0.00 0.00 82 1009.3
20260506004530 49 119 1.0 3.0 0.00 0.00 0.00 82 1009.5
20260506003028 49 344 0.0 4.0 0.00 0.00 0.00 81 1009.6
20260506001526 49 51 1.0 6.0 0.00 0.00 0.00 80 1009.8
20260506000025 49 84 1.0 8.0 0.00 0.00 0.00 79 1009.9
20260505234522 49 326 1.0 5.0 0.00 0.00 0.00 78 1009.9
20260505233021 49 86 0.0 7.0 0.00 0.00 0.00 78 1010.0
20260505231527 49 102 2.0 5.0 0.00 0.00 0.00 78 1010.0
20260505230019 49 58 1.0 7.0 0.00 0.00 0.00 78 1010.1
20260505224526 49 54 1.0 9.0 0.00 0.00 0.00 78 1010.3
20260505223017 50 95 2.0 6.0 0.00 0.00 0.00 79 1010.3
20260505221513 50 28 2.0 7.0 0.00 0.00 0.00 79 1010.4
20260505220009 50 80 0.0 5.0 0.00 0.00 0.00 79 1010.4
20260505214508 50 97 0.0 8.0 0.00 0.00 0.00 80 1010.5
20260505213007 50 50 0.0 6.0 0.00 0.00 0.00 80 1010.5
20260505211520 50 50 1.0 4.0 0.00 0.00 0.00 80 1010.6
20260505210006 50 16 1.0 7.0 0.00 0.00 0.00 80 1010.7
20260505204505 50 298 2.0 5.0 0.00 0.00 0.00 80 1010.8
20260505203005 50 323 1.0 5.0 0.00 0.00 0.00 79 1011.0
20260505201507 50 44 1.0 5.0 0.00 0.00 0.00 79 1011.0
20260505200004 50 71 1.0 5.0 0.00 0.00 0.00 79 1010.9
20260505194506 50 70 1.0 7.0 0.00 0.00 0.00 79 1010.8
20260505193003 51 355 2.0 4.0 0.00 0.00 0.00 78 1010.7
20260505191503 51 65 1.0 4.0 0.00 0.00 0.00 78 1010.7
20260505190100 51 30 1.0 5.0 0.00 0.00 0.00 77 1010.4
20260505184603 51 80 1.0 6.0 0.00 0.00 0.00 77 1010.4
20260505183013 51 32 0.0 5.0 0.00 0.00 0.00 77 1010.3
20260505181539 52 90 1.0 4.0 0.00 0.00 0.00 77 1010.4
20260505180036 52 83 1.0 5.0 0.00 0.00 0.00 78 1010.4
20260505174536 52 23 2.0 9.0 0.00 0.00 0.00 77 1010.4
20260505173034 52 74 2.0 6.0 0.00 0.00 0.00 77 1010.4
20260505171534 52 29 2.0 6.0 0.00 0.00 0.00 77 1010.6
20260505170037 52 355 1.0 9.0 0.00 0.00 0.00 77 1010.6
20260505164535 53 117 1.0 10.0 0.00 0.00 0.00 77 1010.6
20260505163033 53 78 3.0 6.0 0.00 0.00 0.00 75 1010.6
20260505161531 53 90 2.0 8.0 0.00 0.00 0.00 76 1010.6
20260505153028 53 286 0.0 5.0 0.00 0.00 0.00 76 1010.8
20260505151534 53 323 2.0 6.0 0.00 0.00 0.00 75 1010.8